Content
SEND FEEDBACK

Daily
Averages
Monthly
Summary
Canada

KINGSTON, ONTARIO


Home > North America > Canada > Ontario
Elevation: 305 feet     Latitude: 44 13N     Longitude: 076 36W

WEATHER
 
SELECT A DAY
Number of Records: 127,638;   Date Range: 1/1/95 - 10/20/14
 
SHARE

PRINT THIS DATA

[ ← Previous Day ]
WEATHER ALMANAC - SEPTEMBER 21, 2013
[ Next Day → ]
[ °C ]   °F
Weather ElementAverageHighLow
Temperature62.5 °F66.2 °F (7:00 am)57.2 °F (11:00 pm)
Dewpoint61 °F64.4 °F (9:52 am)55.4 °F (11:00 pm)
Humidity95.1 %100 % (9:52 am)83 % (7:26 am)
Barometer29.65 in29.68 in (7:00 am)29.61 in (10:00 pm)
Wind Speed11.8 mph24.2 mph (9:52 am)
Wind Gust32.2 mph (9:52 am)
Weather ElementAverage
Visibility7 mi
Wind DirectionSSW (212.6 °)

Weather ElementTotal
Precipitation---
Heating Degree Days3.3 (Base 65)
Growing Degree Days11.7 (Base 50)
Averaged from 27 records on September 21, 2013
WEATHER CONDITIONS BREAKOUT
WIND DIRECTION BREAKOUT
WEATHER BY HOUR - SEPTEMBER 21, 2013
[ °C ]   °F
Local TimeTemperatureDewpointHumidityBarometerVisibilityWind DirectionWind SpeedGust SpeedPrecipitationEventsConditions
7:00 AM66.2 °F62.6 °F88 %29.68 in15.0 miSouth (170°)23.0 mph31.1 mphOvercast
7:26 AM66.2 °F60.8 °F83 %29.67 in7.0 miSouth (170°)23.0 mph29.9 mphRainLight Rain
8:00 AM64.4 °F62.6 °F94 %29.68 in5.0 miSouth (180°)20.7 mph29.9 mphRainRain Showers
8:11 AM64.4 °F62.6 °F94 %29.68 in1.5 miSouth (180°)21.9 mph28.8 mphRainRain Showers
8:14 AM64.4 °F62.6 °F94 %29.68 in6.0 miSouth (180°)23.0 mph28.8 mphRainRain Showers
9:00 AM64.4 °F62.6 °F94 %29.68 in6.0 miSouth (180°)18.4 mph27.6 mphRainLight Rain
9:30 AM64.4 °F62.6 °F94 %29.67 in6.0 miSouth (180°)20.7 mph31.1 mphRainLight Rain Showers
9:52 AM64.4 °F64.4 °F100 %29.68 in6.0 miSouth (190°)24.2 mph32.2 mphRainLight Rain Showers
10:00 AM64.4 °F64.4 °F100 %29.68 in2.5 miSSW (200°)19.6 mph32.2 mphRainLight Rain Showers
11:00 AM64.4 °F62.6 °F94 %29.65 in10.0 miSouth (190°)10.4 mphOvercast
11:12 AM64.4 °F62.6 °F94 %29.65 in10.0 miSSW (200°)10.4 mphRainLight Rain
12:00 PM64.4 °F62.6 °F94 %29.65 in8.0 miWSW (250°)6.9 mphRainLight Rain
1:00 PM62.6 °F62.6 °F100 %29.65 in8.0 miWest (260°)8.1 mphRainLight Rain
1:46 PM62.6 °F62.6 °F100 %29.64 in6.0 miWSW (240°)5.8 mphRainLight Rain
2:00 PM62.6 °F62.6 °F100 %29.63 in3.0 miWest (280°)9.2 mphRainLight Rain
3:00 PM62.6 °F60.8 °F94 %29.63 in4.0 miWest (280°)6.9 mphRainLight Rain
4:00 PM60.8 °F60.8 °F100 %29.62 in3.0 miNNE (20°)9.2 mphRainLight Rain
5:00 PM60.8 °F59.0 °F94 %29.63 in5.0 miWNW (300°)3.5 mphRainLight Rain
5:31 PM60.8 °F59.0 °F94 %29.63 in5.0 miNW (310°)4.6 mphRainLight Rain
6:00 PM59.0 °F57.2 °F94 %29.63 in5.0 miWest (260°)3.5 mphRainLight Rain
7:00 PM59.0 °F57.2 °F94 %29.63 in6.0 miWSW (250°)3.5 mphRainLight Rain
8:00 PM59.0 °F57.2 °F94 %29.63 in12.0 miSSW (200°)3.5 mphRainLight Rain
8:32 PM60.8 °F59.0 °F94 %29.63 in8.0 miSSW (200°)4.6 mphRainLight Rain
9:00 PM60.8 °F59.0 °F94 %29.62 in10.0 miSouth (180°)6.9 mphRainLight Rain
10:00 PM60.8 °F60.8 °F100 %29.61 in12.0 miSSW (200°)8.1 mphOvercast
10:02 PM60.8 °F60.8 °F100 %29.61 in10.0 miSSW (210°)9.2 mphRainLight Rain
11:00 PM57.2 °F55.4 °F94 %29.63 in8.0 miWest (280°)9.2 mph19.6 mphRainLight Rain
Hourly data recorded from CYGK, located miles away from Kingston, Ontario







STORIES FROM OUR PARTNERS